TimeEST,TemperatureF,Dew PointF,Humidity,Sea Level PressureIn,VisibilityMPH,Wind Direction,Wind SpeedMPH,Gust SpeedMPH,PrecipitationIn,Events,Conditions,WindDirDegrees,DateUTC
12:15 AM,28.8,24.8,85,30.50,10.0,SE,3.5,-,N/A,,Clear,140,2012-11-14 05:15:00
12:35 AM,29.3,24.8,83,30.50,10.0,Calm,Calm,-,N/A,,Clear,0,2012-11-14 05:35:00
12:55 AM,28.0,24.3,86,30.50,10.0,Calm,Calm,-,N/A,,Clear,0,2012-11-14 05:55:00
1:15 AM,28.0,24.4,86,30.51,10.0,Calm,Calm,-,N/A,,Clear,0,2012-11-14 06:15:00
1:35 AM,26.6,24.3,91,30.51,10.0,Calm,Calm,-,N/A,,Clear,0,2012-11-14 06:35:00
1:55 AM,25.7,23.7,92,30.51,10.0,Calm,Calm,-,N/A,,Clear,0,2012-11-14 06:55:00
2:15 AM,28.6,23.7,82,30.51,10.0,Calm,Calm,-,N/A,,Clear,0,2012-11-14 07:15:00
2:35 AM,29.1,23.9,81,30.52,10.0,Calm,Calm,-,N/A,,Clear,0,2012-11-14 07:35:00
2:55 AM,29.1,24.4,83,30.52,10.0,Calm,Calm,-,N/A,,Clear,0,2012-11-14 07:55:00
3:15 AM,27.9,23.2,83,30.53,10.0,Calm,Calm,-,N/A,,Clear,0,2012-11-14 08:15:00
3:35 AM,28.4,23.7,83,30.52,10.0,Calm,Calm,-,N/A,,Clear,0,2012-11-14 08:35:00
3:55 AM,29.1,23.7,80,30.52,10.0,Calm,Calm,-,N/A,,Clear,0,2012-11-14 08:55:00
4:15 AM,28.4,23.5,82,30.52,10.0,Calm,Calm,-,N/A,,Clear,0,2012-11-14 09:15:00
4:35 AM,27.7,23.2,83,30.52,10.0,Calm,Calm,-,N/A,,Clear,0,2012-11-14 09:35:00
4:55 AM,28.2,23.2,81,30.52,10.0,Calm,Calm,-,N/A,,Clear,0,2012-11-14 09:55:00
5:15 AM,28.0,23.0,81,30.52,10.0,Calm,Calm,-,N/A,,Clear,0,2012-11-14 10:15:00
5:35 AM,27.9,23.0,82,30.53,10.0,Calm,Calm,-,N/A,,Clear,0,2012-11-14 10:35:00
5:56 AM,27.5,23.2,84,30.52,10.0,Calm,Calm,-,N/A,,Clear,0,2012-11-14 10:56:00
6:15 AM,28.0,23.5,83,30.52,10.0,Calm,Calm,-,N/A,,Clear,0,2012-11-14 11:15:00
6:35 AM,28.0,23.2,82,30.53,10.0,SE,3.5,-,N/A,,Clear,140,2012-11-14 11:35:00
6:55 AM,28.2,23.0,81,30.53,10.0,Calm,Calm,-,N/A,,Clear,0,2012-11-14 11:55:00
7:15 AM,28.4,23.0,80,30.53,10.0,Calm,Calm,-,N/A,,Clear,0,2012-11-14 12:15:00
7:35 AM,29.1,23.5,80,30.53,10.0,Calm,Calm,-,N/A,,Clear,0,2012-11-14 12:35:00
7:55 AM,29.8,23.9,79,30.54,10.0,SSE,3.5,-,N/A,,Scattered Clouds,160,2012-11-14 12:55:00
8:15 AM,30.0,24.1,79,30.54,10.0,Calm,Calm,-,N/A,,Scattered Clouds,0,2012-11-14 13:15:00
8:35 AM,30.2,23.9,77,30.55,10.0,SSE,3.5,-,N/A,,Scattered Clouds,160,2012-11-14 13:35:00
8:55 AM,31.1,24.1,75,30.55,10.0,SSE,4.6,-,N/A,,Scattered Clouds,160,2012-11-14 13:55:00
9:15 AM,32.0,25.3,76,30.55,10.0,Calm,Calm,-,N/A,,Mostly Cloudy,0,2012-11-14 14:15:00
9:35 AM,32.9,26.1,76,30.55,10.0,SSE,5.8,-,N/A,,Scattered Clouds,160,2012-11-14 14:35:00
9:55 AM,33.6,26.1,74,30.55,10.0,SSE,4.6,-,N/A,,Clear,160,2012-11-14 14:55:00
10:15 AM,35.4,26.4,70,30.55,10.0,SSE,6.9,-,N/A,,Clear,160,2012-11-14 15:15:00
10:35 AM,36.7,27.0,68,30.55,10.0,South,5.8,-,N/A,,Clear,170,2012-11-14 15:35:00
10:55 AM,37.6,26.2,64,30.55,10.0,SSE,6.9,-,N/A,,Clear,160,2012-11-14 15:55:00
11:15 AM,39.2,26.1,59,30.55,10.0,South,8.1,-,N/A,,Clear,180,2012-11-14 16:15:00
11:35 AM,39.6,25.9,58,30.54,10.0,SSE,8.1,-,N/A,,Scattered Clouds,160,2012-11-14 16:35:00
11:55 AM,40.1,25.0,55,30.53,10.0,SSE,9.2,-,N/A,,Scattered Clouds,160,2012-11-14 16:55:00
12:15 PM,40.8,25.3,54,30.52,10.0,SSE,6.9,-,N/A,,Scattered Clouds,150,2012-11-14 17:15:00
12:35 PM,41.0,25.5,54,30.50,10.0,South,8.1,-,N/A,,Mostly Cloudy,170,2012-11-14 17:35:00
12:55 PM,42.1,25.2,51,30.50,10.0,SSE,4.6,-,N/A,,Scattered Clouds,150,2012-11-14 17:55:00
1:15 PM,41.7,25.5,53,30.48,10.0,SSE,5.8,-,N/A,,Clear,150,2012-11-14 18:15:00
1:35 PM,42.1,25.9,53,30.47,10.0,SSE,6.9,-,N/A,,Clear,160,2012-11-14 18:35:00
1:55 PM,43.5,25.5,49,30.47,10.0,SSE,6.9,-,N/A,,Clear,150,2012-11-14 18:55:00
2:15 PM,43.2,24.6,48,30.47,10.0,SE,8.1,-,N/A,,Clear,140,2012-11-14 19:15:00
2:35 PM,44.2,25.0,47,30.46,10.0,SSE,6.9,-,N/A,,Clear,160,2012-11-14 19:35:00
2:55 PM,44.1,24.3,46,30.45,10.0,South,10.4,-,N/A,,Clear,180,2012-11-14 19:55:00
3:15 PM,43.9,23.9,45,30.45,10.0,South,3.5,-,N/A,,Clear,180,2012-11-14 20:15:00
3:35 PM,43.7,24.6,47,30.44,10.0,South,5.8,-,N/A,,Clear,170,2012-11-14 20:35:00
3:55 PM,43.2,24.6,48,30.45,10.0,SSE,3.5,-,N/A,,Clear,160,2012-11-14 20:55:00
4:15 PM,43.2,25.0,49,30.45,10.0,SSE,4.6,-,N/A,,Clear,160,2012-11-14 21:15:00
4:35 PM,43.0,25.2,49,30.44,10.0,SSE,3.5,-,N/A,,Clear,160,2012-11-14 21:35:00
4:55 PM,42.8,25.5,51,30.44,10.0,South,4.6,-,N/A,,Clear,170,2012-11-14 21:55:00
5:15 PM,41.9,25.5,52,30.44,10.0,SSE,4.6,-,N/A,,Clear,160,2012-11-14 22:15:00
5:35 PM,41.4,24.8,52,30.44,10.0,Calm,Calm,-,N/A,,Clear,0,2012-11-14 22:35:00
5:55 PM,40.3,24.8,54,30.43,10.0,Calm,Calm,-,N/A,,Clear,0,2012-11-14 22:55:00
6:15 PM,39.6,25.3,57,30.43,10.0,SE,3.5,-,N/A,,Clear,130,2012-11-14 23:15:00
6:35 PM,38.3,25.5,60,30.44,10.0,SE,3.5,-,N/A,,Clear,140,2012-11-14 23:35:00
6:55 PM,37.0,25.7,64,30.44,10.0,Calm,Calm,-,N/A,,Clear,0,2012-11-14 23:55:00
7:15 PM,34.0,25.7,72,30.44,10.0,Calm,Calm,-,N/A,,Clear,0,2012-11-15 00:15:00
7:35 PM,32.5,25.5,75,30.44,10.0,Calm,Calm,-,N/A,,Clear,0,2012-11-15 00:35:00
7:55 PM,32.0,25.9,78,30.44,10.0,Calm,Calm,-,N/A,,Clear,0,2012-11-15 00:55:00
8:16 PM,30.4,25.5,82,30.43,7.0,Calm,Calm,-,N/A,,Clear,0,2012-11-15 01:16:00
8:35 PM,30.0,25.7,84,30.43,7.0,Calm,Calm,-,N/A,,Clear,0,2012-11-15 01:35:00
8:55 PM,29.3,25.0,84,30.42,10.0,Calm,Calm,-,N/A,,Clear,0,2012-11-15 01:55:00
9:35 PM,28.8,25.2,86,30.42,5.0,Calm,Calm,-,N/A,,Clear,0,2012-11-15 02:35:00
9:55 PM,28.6,25.2,87,30.42,7.0,Calm,Calm,-,N/A,,Clear,0,2012-11-15 02:55:00
10:15 PM,29.3,25.2,85,30.42,10.0,Calm,Calm,-,N/A,,Clear,0,2012-11-15 03:15:00
10:35 PM,28.6,25.3,88,30.42,10.0,Calm,Calm,-,N/A,,Clear,0,2012-11-15 03:35:00
10:55 PM,26.2,22.8,87,30.41,10.0,Calm,Calm,-,N/A,,Clear,0,2012-11-15 03:55:00
11:15 PM,27.7,24.8,89,30.41,10.0,SE,3.5,-,N/A,,Clear,130,2012-11-15 04:15:00
11:35 PM,31.6,26.2,80,30.41,10.0,SE,3.5,-,N/A,,Clear,140,2012-11-15 04:35:00
11:55 PM,29.5,24.8,83,30.41,10.0,Calm,Calm,-,N/A,,Clear,0,2012-11-15 04:55:00